CFG2455 EDDH-LFPG

Flight info

Callsign CFG2455
Flight time 1h 14m
Altitude 40000
Route HABFU1G/33 HABFU Y348 DOMEG DCT IDOSA UN857 TOLVU/N0457F390 DCT RAPOR DCT VEDUS
Aircraft A339/H-SADE1E2E3GHIJ3J5M1P2RWXY/LB2D1

Departure

Time 2026-04-25 21:19
Airport Hamburg Helmut Schmidt Airport (EDDH)

Arrival

Time 2026-04-25 22:33
Airport Charles de Gaulle International Airport (LFPG)
Time Latitude Longitude Altitude Speed Heading
2026-04-25 20:40 53.63009 10.00347 54 ft 0 kts 123°
2026-04-25 21:00 53.62944 10.00282 48 ft 0 kts 122°
2026-04-25 21:04 53.62952 10.00263 46 ft 4 kts 122°
2026-04-25 21:04 53.62966 10.00225 46 ft 3 kts 122°
2026-04-25 21:04 53.62969 10.00217 46 ft 0 kts 122°
2026-04-25 21:05 53.62971 10.00213 46 ft 1 kts 122°
2026-04-25 21:05 53.62974 10.00202 46 ft 0 kts 133°
2026-04-25 21:05 53.62976 10.00198 46 ft 0 kts 137°
2026-04-25 21:06 53.62977 10.00196 46 ft 3 kts 137°
2026-04-25 21:06 53.62984 10.00183 46 ft 0 kts 154°
2026-04-25 21:06 53.62997 10.00172 47 ft 2 kts 180°
2026-04-25 21:06 53.63004 10.00171 48 ft 1 kts 191°
2026-04-25 21:07 53.63037 10.00200 49 ft 0 kts 225°
2026-04-25 21:09 53.63036 10.00199 54 ft 1 kts 225°
2026-04-25 21:09 53.63024 10.00180 46 ft 4 kts 223°
2026-04-25 21:10 53.62994 10.00141 47 ft 7 kts 215°
2026-04-25 21:10 53.62947 10.00088 48 ft 10 kts 212°
2026-04-25 21:10 53.62881 10.00033 50 ft 11 kts 206°
2026-04-25 21:10 53.62856 9.99990 51 ft 0 kts 237°
2026-04-25 21:16 53.62854 9.99986 54 ft 2 kts 237°
2026-04-25 21:17 53.62839 9.99945 46 ft 7 kts 240°
2026-04-25 21:17 53.62808 9.99847 48 ft 10 kts 244°
2026-04-25 21:17 53.62831 9.99778 49 ft 0 kts 329°
2026-04-25 21:18 53.62860 9.99749 47 ft 28 kts 329°
2026-04-25 21:18 53.63297 9.99366 46 ft 112 kts 333°
2026-04-25 21:18 53.64186 9.98594 132 ft 168 kts 332°
2026-04-25 21:19 53.65318 9.97659 518 ft 194 kts 331°
2026-04-25 21:19 53.66585 9.96611 1101 ft 208 kts 332°
2026-04-25 21:19 53.67920 9.95504 1631 ft 219 kts 333°
2026-04-25 21:19 53.69174 9.94322 2087 ft 196 kts 322°
2026-04-25 21:20 53.70132 9.92672 2698 ft 201 kts 313°
2026-04-25 21:20 53.70679 9.91413 3235 ft 201 kts 304°
2026-04-25 21:20 53.71281 9.88360 4094 ft 217 kts 281°
2026-04-25 21:20 53.71275 9.85775 4741 ft 221 kts 280°
2026-04-25 21:21 53.71100 9.83128 5243 ft 238 kts 257°
2026-04-25 21:21 53.70365 9.80662 6286 ft 233 kts 249°
2026-04-25 21:21 53.69575 9.78269 7058 ft 234 kts 252°
2026-04-25 21:21 53.68876 9.75803 7809 ft 232 kts 256°
2026-04-25 21:22 53.68281 9.73289 8567 ft 231 kts 260°
2026-04-25 21:22 53.67747 9.70726 9323 ft 231 kts 262°
2026-04-25 21:22 53.67249 9.68188 10053 ft 232 kts 263°
2026-04-25 21:22 53.66741 9.65561 10639 ft 238 kts 263°
2026-04-25 21:23 53.66226 9.62827 10833 ft 260 kts 263°
2026-04-25 21:23 53.65571 9.59814 10980 ft 290 kts 252°
2026-04-25 21:23 53.64256 9.56970 11175 ft 329 kts 230°
2026-04-25 21:23 53.62244 9.54782 11402 ft 358 kts 216°
2026-04-25 21:24 53.59989 9.52848 11854 ft 367 kts 214°
2026-04-25 21:24 53.57693 9.50909 12452 ft 371 kts 214°
2026-04-25 21:24 53.55403 9.48927 13013 ft 374 kts 215°
2026-04-25 21:24 53.53077 9.46847 13622 ft 378 kts 216°
2026-04-25 21:25 53.50745 9.44724 14162 ft 382 kts 216°
2026-04-25 21:25 53.48451 9.42626 14744 ft 383 kts 216°
2026-04-25 21:25 53.46100 9.40476 15327 ft 385 kts 216°
2026-04-25 21:25 53.43743 9.38326 15884 ft 387 kts 216°
2026-04-25 21:26 53.41361 9.36157 16452 ft 390 kts 216°
2026-04-25 21:26 53.38972 9.33986 17010 ft 392 kts 216°
2026-04-25 21:26 53.36570 9.31806 17548 ft 395 kts 216°
2026-04-25 21:26 53.34138 9.29638 18086 ft 400 kts 213°
2026-04-25 21:27 53.31515 9.27887 18614 ft 410 kts 204°
2026-04-25 21:27 53.28753 9.26803 19096 ft 418 kts 195°
2026-04-25 21:27 53.25872 9.26002 19581 ft 421 kts 195°
2026-04-25 21:27 53.22984 9.25179 20051 ft 423 kts 195°
2026-04-25 21:28 53.20006 9.24311 20564 ft 425 kts 195°
2026-04-25 21:28 53.17150 9.23470 21040 ft 428 kts 195°
2026-04-25 21:28 53.14209 9.22599 21532 ft 431 kts 195°
2026-04-25 21:28 53.11254 9.21695 22005 ft 431 kts 198°
2026-04-25 21:29 53.08445 9.20119 22482 ft 424 kts 212°
2026-04-25 21:29 53.05985 9.17530 22976 ft 416 kts 224°
2026-04-25 21:29 53.03656 9.14620 23465 ft 419 kts 224°
2026-04-25 21:29 53.01333 9.11688 23921 ft 422 kts 224°
2026-04-25 21:30 52.98991 9.08735 24366 ft 424 kts 224°
2026-04-25 21:30 52.96635 9.05774 24808 ft 426 kts 224°
2026-04-25 21:30 52.94262 9.02799 25232 ft 428 kts 224°
2026-04-25 21:30 52.92688 9.00830 25517 ft 429 kts 223°
2026-04-25 21:31 52.89486 8.96831 26083 ft 433 kts 223°
2026-04-25 21:31 52.87074 8.93825 26510 ft 435 kts 223°
2026-04-25 21:31 52.84653 8.90814 26928 ft 437 kts 223°
2026-04-25 21:31 52.82252 8.87833 27331 ft 439 kts 223°
2026-04-25 21:32 52.79807 8.84803 27730 ft 442 kts 223°
2026-04-25 21:32 52.77335 8.81745 28116 ft 444 kts 223°
2026-04-25 21:32 52.74851 8.78676 28506 ft 446 kts 222°
2026-04-25 21:32 52.72366 8.75611 28886 ft 448 kts 222°
2026-04-25 21:33 52.69853 8.72516 29278 ft 451 kts 222°
2026-04-25 21:33 52.67338 8.69422 29633 ft 453 kts 222°
2026-04-25 21:33 52.64817 8.66325 30006 ft 455 kts 222°
2026-04-25 21:33 52.62258 8.63187 30344 ft 458 kts 221°
2026-04-25 21:34 52.59693 8.60047 30668 ft 460 kts 221°
2026-04-25 21:34 52.57118 8.56898 30994 ft 463 kts 221°
2026-04-25 21:34 52.54525 8.53732 31323 ft 465 kts 221°
2026-04-25 21:34 52.51956 8.50601 31623 ft 467 kts 221°
2026-04-25 21:35 52.49338 8.47414 31949 ft 470 kts 221°
2026-04-25 21:35 52.46710 8.44219 32243 ft 472 kts 221°
2026-04-25 21:35 52.44068 8.41014 32552 ft 474 kts 220°
2026-04-25 21:35 52.41406 8.37789 32828 ft 476 kts 220°
2026-04-25 21:36 52.38742 8.34566 33057 ft 478 kts 220°
2026-04-25 21:36 52.36057 8.31322 33279 ft 480 kts 220°
2026-04-25 21:36 52.33368 8.28080 33487 ft 481 kts 220°
2026-04-25 21:36 52.30698 8.24866 33679 ft 482 kts 220°
2026-04-25 21:37 52.27997 8.21618 33897 ft 482 kts 219°
2026-04-25 21:37 52.26183 8.19440 34061 ft 482 kts 219°
2026-04-25 21:37 52.22569 8.15108 34359 ft 481 kts 219°
2026-04-25 21:37 52.19929 8.11949 34591 ft 479 kts 219°
2026-04-25 21:38 52.17231 8.08724 34824 ft 479 kts 219°
2026-04-25 21:38 52.14545 8.05519 35026 ft 478 kts 219°
2026-04-25 21:38 52.11867 8.02329 35238 ft 477 kts 219°
2026-04-25 21:38 52.09185 7.99140 35449 ft 476 kts 219°
2026-04-25 21:39 52.06508 7.95961 35636 ft 476 kts 219°
2026-04-25 21:39 52.03845 7.92803 35860 ft 475 kts 219°
2026-04-25 21:39 52.01169 7.89634 36042 ft 475 kts 219°
2026-04-25 21:39 51.98542 7.86528 36237 ft 474 kts 219°
2026-04-25 21:40 51.95871 7.83375 36419 ft 474 kts 219°
2026-04-25 21:40 51.93209 7.80237 36609 ft 473 kts 219°
2026-04-25 21:40 51.90530 7.77083 36796 ft 473 kts 219°
2026-04-25 21:40 51.87915 7.74009 36975 ft 472 kts 219°
2026-04-25 21:41 51.85232 7.70862 37160 ft 472 kts 219°
2026-04-25 21:41 51.82573 7.67745 37342 ft 471 kts 219°
2026-04-25 21:41 51.79917 7.64637 37513 ft 471 kts 219°
2026-04-25 21:41 51.77272 7.61547 37696 ft 471 kts 219°
2026-04-25 21:42 51.74614 7.58447 37864 ft 470 kts 219°
2026-04-25 21:42 51.71956 7.55350 38049 ft 470 kts 219°
2026-04-25 21:42 51.69311 7.52274 38201 ft 470 kts 219°
2026-04-25 21:42 51.66661 7.49196 38368 ft 470 kts 219°
2026-04-25 21:43 51.64008 7.46118 38533 ft 469 kts 219°
2026-04-25 21:43 51.61407 7.43107 38674 ft 469 kts 219°
2026-04-25 21:43 51.58745 7.40028 38856 ft 469 kts 219°
2026-04-25 21:43 51.56093 7.36966 38974 ft 469 kts 219°
2026-04-25 21:44 51.53435 7.33902 39111 ft 468 kts 219°
2026-04-25 21:44 51.50800 7.30868 39244 ft 468 kts 219°
2026-04-25 21:44 51.45504 7.24784 39496 ft 468 kts 219°
2026-04-25 21:45 51.42858 7.21752 39597 ft 468 kts 219°
2026-04-25 21:45 51.37559 7.15691 39858 ft 467 kts 218°
2026-04-25 21:45 51.34916 7.12675 39965 ft 467 kts 218°
2026-04-25 21:46 51.32305 7.09701 40095 ft 467 kts 218°
2026-04-25 21:46 51.27016 7.03687 40204 ft 466 kts 218°
2026-04-25 21:47 51.21721 6.97685 40208 ft 466 kts 218°
2026-04-25 21:47 51.16444 6.91717 40206 ft 465 kts 218°
2026-04-25 21:48 51.11167 6.85768 40207 ft 465 kts 218°
2026-04-25 21:48 51.05874 6.79820 40204 ft 464 kts 218°
2026-04-25 21:49 51.00643 6.73974 40206 ft 464 kts 218°
2026-04-25 21:49 50.95341 6.68121 40207 ft 463 kts 218°
2026-04-25 21:50 50.90147 6.62267 40119 ft 459 kts 218°
2026-04-25 21:50 50.87545 6.59349 39753 ft 457 kts 218°
2026-04-25 21:50 50.84949 6.56453 39353 ft 454 kts 218°
2026-04-25 21:51 50.79779 6.50716 39212 ft 458 kts 218°
2026-04-25 21:51 50.74586 6.44976 39224 ft 459 kts 218°
2026-04-25 21:52 50.69347 6.39212 39202 ft 458 kts 218°
2026-04-25 21:52 50.64136 6.33479 39193 ft 458 kts 218°
2026-04-25 21:53 50.58902 6.27739 39191 ft 457 kts 218°
2026-04-25 21:53 50.53682 6.22034 39188 ft 457 kts 217°
2026-04-25 21:54 50.48468 6.16349 39207 ft 456 kts 217°
2026-04-25 21:54 50.43292 6.10723 39217 ft 456 kts 217°
2026-04-25 21:55 50.38051 6.05042 39216 ft 456 kts 217°
2026-04-25 21:55 50.32854 5.99421 39214 ft 455 kts 217°
2026-04-25 21:56 50.27628 5.93786 39218 ft 455 kts 217°
2026-04-25 21:56 50.22417 5.88182 39216 ft 455 kts 217°
2026-04-25 21:57 50.17238 5.82627 39219 ft 455 kts 217°
2026-04-25 21:57 50.12017 5.77043 39213 ft 455 kts 217°
2026-04-25 21:58 50.06796 5.71472 39212 ft 454 kts 217°
2026-04-25 21:58 50.01578 5.65921 39212 ft 454 kts 217°
2026-04-25 21:59 49.96373 5.60406 39209 ft 453 kts 217°
2026-04-25 21:59 49.91191 5.54925 38970 ft 453 kts 217°
2026-04-25 22:00 49.86012 5.49449 38427 ft 450 kts 217°
2026-04-25 22:00 49.83422 5.46719 38148 ft 449 kts 217°
2026-04-25 22:00 49.80843 5.44006 37719 ft 447 kts 217°
2026-04-25 22:00 49.78272 5.41303 37107 ft 446 kts 217°
2026-04-25 22:01 49.75700 5.38603 36445 ft 445 kts 217°
2026-04-25 22:01 49.74004 5.36825 35956 ft 445 kts 217°
2026-04-25 22:01 49.71436 5.34157 35237 ft 445 kts 216°
2026-04-25 22:01 49.69695 5.32362 34738 ft 445 kts 216°
2026-04-25 22:02 49.66295 5.28838 33653 ft 445 kts 216°
2026-04-25 22:02 49.63797 5.26016 32619 ft 445 kts 224°
2026-04-25 22:02 49.61141 5.21252 31597 ft 441 kts 240°
2026-04-25 22:02 49.59811 5.17018 31318 ft 441 kts 249°
2026-04-25 22:03 49.59071 5.12436 31215 ft 440 kts 263°
2026-04-25 22:03 49.58931 5.09259 31212 ft 440 kts 270°
2026-04-25 22:03 49.58536 4.98359 31095 ft 441 kts 262°
2026-04-25 22:04 49.58212 4.95318 30924 ft 440 kts 261°
2026-04-25 22:04 49.57699 4.90622 30683 ft 437 kts 261°
2026-04-25 22:04 49.57216 4.86002 30429 ft 436 kts 262°
2026-04-25 22:04 49.56759 4.81412 30168 ft 434 kts 262°
2026-04-25 22:05 49.56319 4.76836 29896 ft 433 kts 262°
2026-04-25 22:05 49.55881 4.72222 29611 ft 432 kts 262°
2026-04-25 22:05 49.55448 4.67654 29328 ft 430 kts 262°
2026-04-25 22:05 49.55021 4.63175 29059 ft 429 kts 262°
2026-04-25 22:06 49.54584 4.58616 28691 ft 426 kts 262°
2026-04-25 22:06 49.54157 4.54169 28133 ft 423 kts 262°
2026-04-25 22:06 49.53725 4.49696 27550 ft 420 kts 262°
2026-04-25 22:06 49.53288 4.45281 26864 ft 417 kts 261°
2026-04-25 22:07 49.52846 4.40865 26164 ft 415 kts 262°
2026-04-25 22:07 49.52555 4.37946 25722 ft 413 kts 262°
2026-04-25 22:07 49.51979 4.32141 24877 ft 409 kts 262°
2026-04-25 22:07 49.51553 4.27831 24243 ft 406 kts 262°
2026-04-25 22:08 49.51125 4.23540 23552 ft 405 kts 262°
2026-04-25 22:08 49.50648 4.19374 22821 ft 400 kts 256°
2026-04-25 22:08 49.50081 4.15176 22023 ft 397 kts 257°
2026-04-25 22:08 49.49560 4.11034 21272 ft 393 kts 258°
2026-04-25 22:09 49.49097 4.06903 20526 ft 390 kts 259°
2026-04-25 22:09 49.48690 4.02810 19806 ft 386 kts 260°
2026-04-25 22:09 49.48303 3.98735 19090 ft 383 kts 261°
2026-04-25 22:09 49.47925 3.94709 18378 ft 380 kts 261°
2026-04-25 22:10 49.47546 3.90700 17586 ft 376 kts 261°
2026-04-25 22:10 49.47178 3.86748 16844 ft 372 kts 265°
2026-04-25 22:10 49.46946 3.82799 16084 ft 369 kts 267°
2026-04-25 22:10 49.46707 3.78891 15511 ft 363 kts 264°
2026-04-25 22:11 49.46387 3.75051 15296 ft 366 kts 264°
2026-04-25 22:11 49.46029 3.71173 15214 ft 366 kts 263°
2026-04-25 22:11 49.45639 3.67346 15219 ft 366 kts 263°
2026-04-25 22:11 49.45223 3.63524 15212 ft 366 kts 261°
2026-04-25 22:12 49.44595 3.59691 15228 ft 367 kts 256°
2026-04-25 22:12 49.43984 3.56384 15212 ft 367 kts 256°
2026-04-25 22:12 49.43265 3.52623 15230 ft 367 kts 255°
2026-04-25 22:12 49.42773 3.50145 15215 ft 367 kts 255°
2026-04-25 22:13 49.41727 3.45137 15229 ft 368 kts 253°
2026-04-25 22:13 49.40898 3.41412 15207 ft 368 kts 252°
2026-04-25 22:13 49.40051 3.37802 15228 ft 368 kts 251°
2026-04-25 22:13 49.39126 3.34090 15223 ft 369 kts 250°
2026-04-25 22:14 49.38162 3.30454 15207 ft 369 kts 249°
2026-04-25 22:14 49.37020 3.26941 15236 ft 370 kts 241°
2026-04-25 22:14 49.35851 3.23425 15207 ft 369 kts 246°
2026-04-25 22:14 49.34810 3.19829 15226 ft 369 kts 249°
2026-04-25 22:15 49.33855 3.16170 15222 ft 369 kts 250°
2026-04-25 22:15 49.32923 3.12509 15206 ft 369 kts 250°
2026-04-25 22:15 49.31988 3.08893 15223 ft 356 kts 250°
2026-04-25 22:16 49.30246 3.02324 15163 ft 315 kts 249°
2026-04-25 22:16 49.29430 2.99279 14822 ft 307 kts 249°
2026-04-25 22:16 49.28628 2.96288 14329 ft 305 kts 249°
2026-04-25 22:16 49.27826 2.93293 13807 ft 304 kts 249°
2026-04-25 22:17 49.27024 2.90302 13265 ft 301 kts 249°
2026-04-25 22:17 49.26228 2.87340 12719 ft 299 kts 249°
2026-04-25 22:17 49.25439 2.84412 12182 ft 297 kts 249°
2026-04-25 22:17 49.25172 2.83422 12002 ft 296 kts 249°
2026-04-25 22:18 49.24728 2.81775 11695 ft 295 kts 249°
2026-04-25 22:18 49.24212 2.79862 11410 ft 292 kts 249°
2026-04-25 22:18 49.23640 2.77741 11285 ft 293 kts 249°
2026-04-25 22:19 49.22862 2.74883 11223 ft 295 kts 248°
2026-04-25 22:19 49.22068 2.71954 11212 ft 295 kts 249°
2026-04-25 22:19 49.21296 2.69092 11213 ft 295 kts 249°
2026-04-25 22:19 49.20517 2.66204 11214 ft 295 kts 249°
2026-04-25 22:20 49.19732 2.63305 11210 ft 295 kts 249°
2026-04-25 22:20 49.18949 2.60417 11140 ft 293 kts 248°
2026-04-25 22:20 49.18287 2.57491 10803 ft 291 kts 257°
2026-04-25 22:20 49.17991 2.54446 10329 ft 289 kts 268°
2026-04-25 22:21 49.17965 2.51386 9735 ft 287 kts 271°
2026-04-25 22:21 49.17997 2.48350 9159 ft 285 kts 272°
2026-04-25 22:21 49.18027 2.45395 8596 ft 283 kts 272°
2026-04-25 22:21 49.18058 2.42420 8306 ft 279 kts 272°
2026-04-25 22:22 49.18091 2.39399 8224 ft 283 kts 272°
2026-04-25 22:22 49.18125 2.36401 8213 ft 282 kts 272°
2026-04-25 22:22 49.18158 2.33408 8213 ft 282 kts 272°
2026-04-25 22:22 49.18190 2.30449 8034 ft 280 kts 272°
2026-04-25 22:23 49.18223 2.27471 7636 ft 278 kts 272°
2026-04-25 22:23 49.18059 2.24542 7044 ft 279 kts 255°
2026-04-25 22:23 49.17245 2.21885 6522 ft 276 kts 241°
2026-04-25 22:23 49.16324 2.19324 6278 ft 277 kts 242°
2026-04-25 22:24 49.15393 2.16733 6165 ft 276 kts 242°
2026-04-25 22:24 49.14479 2.14191 5865 ft 273 kts 242°
2026-04-25 22:24 49.13579 2.11692 5351 ft 271 kts 242°
2026-04-25 22:24 49.12671 2.09177 4748 ft 269 kts 242°
2026-04-25 22:25 49.11776 2.06682 4215 ft 266 kts 242°
2026-04-25 22:25 49.10802 2.04300 4004 ft 268 kts 228°
2026-04-25 22:25 49.09309 2.02634 4010 ft 268 kts 204°
2026-04-25 22:25 49.07576 2.01556 4000 ft 269 kts 201°
2026-04-25 22:26 49.05846 2.00485 3999 ft 268 kts 201°
2026-04-25 22:26 49.04044 1.99957 3999 ft 259 kts 177°
2026-04-25 22:26 49.02405 2.00639 3991 ft 237 kts 148°
2026-04-25 22:26 49.01250 2.02344 3999 ft 233 kts 119°
2026-04-25 22:27 49.00598 2.04603 3993 ft 232 kts 109°
2026-04-25 22:27 49.00238 2.06937 4006 ft 230 kts 95°
2026-04-25 22:27 49.00218 2.09412 3998 ft 231 kts 86°
2026-04-25 22:27 49.00335 2.11817 4000 ft 231 kts 84°
2026-04-25 22:28 49.00463 2.14212 3994 ft 219 kts 84°
2026-04-25 22:28 49.00577 2.16441 3996 ft 207 kts 84°
2026-04-25 22:28 49.00694 2.18663 4001 ft 211 kts 84°
2026-04-25 22:28 49.00809 2.20873 3999 ft 209 kts 84°
2026-04-25 22:29 49.00925 2.23093 3999 ft 210 kts 84°
2026-04-25 22:29 49.01041 2.25295 3927 ft 211 kts 84°
2026-04-25 22:29 49.01165 2.27538 3638 ft 210 kts 84°
2026-04-25 22:30 49.01387 2.31870 3102 ft 201 kts 85°
2026-04-25 22:30 49.01493 2.33916 2826 ft 191 kts 85°
2026-04-25 22:30 49.01597 2.35892 2563 ft 182 kts 85°
2026-04-25 22:30 49.01665 2.37171 2404 ft 178 kts 85°
2026-04-25 22:31 49.01795 2.39620 2094 ft 170 kts 84°
2026-04-25 22:31 49.01885 2.41335 1889 ft 155 kts 83°
2026-04-25 22:31 49.01975 2.42881 1666 ft 138 kts 83°
2026-04-25 22:31 49.02048 2.44300 1490 ft 138 kts 83°
2026-04-25 22:32 49.02121 2.45736 1303 ft 130 kts 83°
2026-04-25 22:32 49.02193 2.47174 1108 ft 143 kts 85°
2026-04-25 22:32 49.02262 2.48606 892 ft 138 kts 83°
2026-04-25 22:32 49.02331 2.50009 671 ft 129 kts 84°
2026-04-25 22:33 49.02412 2.51357 434 ft 133 kts 85°
2026-04-25 22:33 49.02491 2.52743 370 ft 125 kts 82°
2026-04-25 22:33 49.02553 2.53855 368 ft 79 kts 85°
2026-04-25 22:33 49.02572 2.54345 359 ft 33 kts 89°
2026-04-25 22:34 49.02521 2.54709 365 ft 27 kts 106°
2026-04-25 22:34 49.02470 2.54976 365 ft 26 kts 106°
2026-04-25 22:34 49.02449 2.55240 362 ft 25 kts 82°
2026-04-25 22:34 49.02463 2.55488 367 ft 17 kts 88°
2026-04-25 22:35 49.02448 2.55573 365 ft 0 kts 129°
2026-04-25 22:35 49.02442 2.55583 365 ft 4 kts 133°
2026-04-25 22:35 49.02383 2.55616 363 ft 14 kts 169°
2026-04-25 22:36 49.02271 2.55631 362 ft 17 kts 175°
2026-04-25 22:36 49.02179 2.55643 366 ft 9 kts 175°
2026-04-25 22:36 49.02165 2.55644 365 ft 0 kts 175°
2026-04-25 22:36 49.02163 2.55644 365 ft 1 kts 175°
2026-04-25 22:37 49.02131 2.55647 363 ft 11 kts 179°
2026-04-25 22:37 49.02077 2.55565 368 ft 11 kts 243°
2026-04-25 22:37 49.02060 2.55451 365 ft 11 kts 264°
2026-04-25 22:37 49.02054 2.55347 361 ft 9 kts 265°
2026-04-25 22:38 49.02049 2.55244 361 ft 11 kts 266°
2026-04-25 22:38 49.02043 2.55123 366 ft 12 kts 265°
2026-04-25 22:38 49.02037 2.54999 361 ft 5 kts 265°
2026-04-25 22:38 49.02033 2.54936 367 ft 7 kts 265°
2026-04-25 22:39 49.02009 2.54871 367 ft 8 kts 226°
2026-04-25 22:39 49.01959 2.54848 361 ft 8 kts 184°
2026-04-25 22:39 49.01896 2.54851 366 ft 10 kts 174°
2026-04-25 22:39 49.01819 2.54862 365 ft 12 kts 174°
2026-04-25 22:40 49.01745 2.54871 367 ft 10 kts 176°
2026-04-25 22:40 49.01668 2.54878 361 ft 12 kts 176°
2026-04-25 22:40 49.01582 2.54888 367 ft 14 kts 175°
2026-04-25 22:40 49.01480 2.54902 367 ft 15 kts 175°
2026-04-25 22:41 49.01369 2.54926 365 ft 17 kts 169°
2026-04-25 22:41 49.01266 2.54977 363 ft 15 kts 152°
2026-04-25 22:41 49.01239 2.55113 367 ft 14 kts 89°
2026-04-25 22:41 49.01248 2.55256 361 ft 11 kts 85°
2026-04-25 22:42 49.01253 2.55332 367 ft 0 kts 85°
2026-04-25 22:42 49.01254 2.55349 367 ft 3 kts 86°
2026-04-25 22:42 49.01243 2.55363 364 ft 2 kts 133°
2026-04-25 22:42 49.01233 2.55383 367 ft 0 kts 124°
2026-04-25 22:43 49.01225 2.55392 362 ft 3 kts 136°
2026-04-25 22:43 49.01206 2.55397 366 ft 2 kts 174°
2026-04-25 22:43 49.01194 2.55400 363 ft 1 kts 172°
2026-04-25 22:43 49.01185 2.55401 362 ft 0 kts 173°
2026-04-25 22:44 49.01179 2.55402 361 ft 0 kts 173°
2026-04-25 22:44 49.01174 2.55403 361 ft 0 kts 174°
2026-04-25 22:44 49.01173 2.55403 361 ft 1 kts 174°
2026-04-25 22:44 49.01172 2.55403 361 ft 0 kts 174°